Dalhart, TX

2:32 AM CDT on September 24, 2017 (GMT -0500)
Dalhart Municipal

Weather History for KDHT - February, 2014

Change the Weather History Date:

Saturday, February 22, 2014

  Actual Average Record
Temperature  
Mean Temperature 46 °F 39 °F  
Max Temperature 68 °F 54 °F 80 °F (2017)
Min Temperature 24 °F 24 °F 8 °F (1960)
Degree Days  
Heating Degree Days 19 26  
Month to date heating degree days 602 612  
Since 1 July heating degree days 3449 3494  
Cooling Degree Days 0 0  
Month to date cooling degree days 0 0  
Year to date cooling degree days 0 0  
Moisture  
Dew Point 9 °F    
Average Humidity 30    
Maximum Humidity 50    
Minimum Humidity 10    
Precipitation  
Precipitation 0.00 in 0.01 in 0.63 in (2015)
Month to date precipitation 0.08 0.31  
Year to date precipitation 0.09 0.83  
Snow  
Snow 0.00 in 0.10 in 4.30 in (2015)
Month to date snowfall 2.8 2.5  
Since 1 July snowfall 15.3 13.0  
Snow Depth 0.00 in    
Sea Level Pressure  
Sea Level Pressure 29.81 in    
Wind  
Wind Speed 9 mph (West)    
Max Wind Speed 22 mph    
Max Gust Speed 26 mph    
Visibility 10 miles    
Events      
T = Trace of Precipitation, MM = Missing Value Source: NWS Daily Summary

Daily Weather History Graph

Daily Weather History Graph

Search for Another Location

Airport or City:

Trip Planner

Search our weather history database for the weather conditions in past years. The results will help you decide how hot, cold, wet, or windy it might be!

Date:

Astronomy

Feb. 22, 2014 Rise Set
Actual Time 7:29 AM CST 6:38 PM CST
Civil Twilight 7:03 AM CST 7:04 PM CST
Nautical Twilight 6:33 AM CST 7:34 PM CST
Astronomical Twilight 6:03 AM CST 8:04 PM CST
Moon 1:22 AM CST (2/22) 11:56 AM CST (2/22)
Length of Visible Light 12h 01m
Length of Day
11h 09m
Waning Gibbous, 50% of the Moon is Illuminated
Feb 22
Waning Gibbous
Mar 1
New
Mar 8
First Quarter
Mar 16
Full
Mar 23
Last Quarter

Hourly Weather History & Observations

Time (CST) Temp. Windchill Dew Point Humidity Pressure Visibility Wind Dir Wind Speed Gust Speed Precip Events Conditions
12:53 AM 30.9 °F 26.2 °F 7.0 °F 37% 29.86 in 10.0 mi NW 4.6 mph - N/A   Clear
1:53 AM 28.0 °F 20.0 °F 8.1 °F 43% 29.85 in 10.0 mi NW 8.1 mph - N/A   Clear
2:53 AM 25.0 °F 18.1 °F 8.1 °F 49% 29.85 in 10.0 mi West 5.8 mph - N/A   Clear
3:53 AM 28.9 °F 20.4 °F 8.1 °F 41% 29.83 in 10.0 mi WNW 9.2 mph - N/A   Clear
4:53 AM 32.0 °F 22.1 °F 8.1 °F 37% 29.83 in 10.0 mi West 13.8 mph - N/A   Clear
5:53 AM 34.0 °F 25.5 °F 7.0 °F 32% 29.84 in 10.0 mi WNW 11.5 mph - N/A   Clear
6:53 AM 32.0 °F 23.6 °F 7.0 °F 35% 29.89 in 10.0 mi NW 10.4 mph - N/A   Clear
7:53 AM 30.9 °F 22.2 °F 8.1 °F 38% 29.91 in 10.0 mi NW 10.4 mph - N/A   Clear
8:53 AM 41.0 °F 37.1 °F 10.9 °F 29% 29.90 in 10.0 mi NW 5.8 mph - N/A   Clear
9:53 AM 51.1 °F - 8.1 °F 18% 29.89 in 10.0 mi West 5.8 mph - N/A   Clear
10:53 AM 55.9 °F - 8.1 °F 15% 29.87 in 10.0 mi Calm Calm - N/A   Clear
11:53 AM 60.1 °F - 5.0 °F 11% 29.84 in 10.0 mi Calm Calm - N/A   Clear
12:53 PM 62.1 °F - 6.1 °F 11% 29.83 in 10.0 mi Variable 3.5 mph - N/A   Clear
1:53 PM 64.0 °F - 10.0 °F 12% 29.79 in 10.0 mi Variable 6.9 mph - N/A   Clear
2:53 PM 64.9 °F - 10.9 °F 12% 29.76 in 10.0 mi SSE 5.8 mph - N/A   Clear
3:53 PM 68.0 °F - 10.9 °F 11% 29.72 in 10.0 mi South 18.4 mph 25.3 mph N/A   Clear
4:53 PM 66.9 °F - 10.9 °F 11% 29.69 in 10.0 mi SW 10.4 mph - N/A   Clear
5:53 PM 64.9 °F - 15.1 °F 15% 29.68 in 10.0 mi SSW 12.7 mph - N/A   Clear
6:53 PM 55.0 °F - 12.0 °F 18% 29.73 in 10.0 mi WSW 9.2 mph - N/A   Clear
7:53 PM 57.0 °F - 10.0 °F 15% 29.75 in 9.0 mi WNW 19.6 mph 25.3 mph N/A   Clear
8:53 PM 52.0 °F - 10.0 °F 19% 29.77 in 8.0 mi West 13.8 mph - N/A   Clear
9:53 PM 46.0 °F 41.0 °F 10.9 °F 24% 29.78 in 10.0 mi NNW 10.4 mph - N/A   Clear
10:53 PM 39.9 °F 35.1 °F 12.0 °F 32% 29.81 in 10.0 mi Variable 6.9 mph - N/A   Clear
11:53 PM 34.0 °F 27.2 °F 12.0 °F 40% 29.85 in 10.0 mi NW 8.1 mph - N/A   Clear